• în România
  • Lista ţărilor
  • Pe 7 zile
  • Temperatura apei
  • Hartă satelitară
  • Meteo pe hartă
  • Widget-uri
  • user-avatar
    Intrare

    Meteo pe oră la Verhnee Chuevo

    Astăzi, 22 Iulie, Duminică

    Timp Temperatura Precipitaţii Vânt Presiune Umiditate
    00:00 +19°C° 0 mm 2 m/s 741 mmHg 92%
    01:00 +19°C° 0 mm 2 m/s 741 mmHg 93%
    02:00 +19°C° 0 mm 2 m/s 741 mmHg 94%
    03:00 +19°C° 0 mm 1 m/s 741 mmHg 95%
    04:00 +19°C° 0 mm 2 m/s 741 mmHg 94%
    05:00 +19°C° 0 mm 2 m/s 741 mmHg 93%
    06:00 +19°C° 0 mm 3 m/s 741 mmHg 92%
    07:00 +21°C° 0 mm 3 m/s 741 mmHg 87%
    08:00 +22°C° 0 mm 3 m/s 741 mmHg 83%
    09:00 +25°C° 0 mm 3 m/s 741 mmHg 78%
    10:00 +25°C° 0,5 mm 4 m/s 741 mmHg 76%
    11:00 +26°C° 0,5 mm 4 m/s 741 mmHg 73%
    12:00 +27°C° 0,5 mm 4 m/s 741 mmHg 71%
    13:00 +27°C° 1 mm 4 m/s 741 mmHg 71%
    14:00 +27°C° 1 mm 4 m/s 741 mmHg 71%
    15:00 +27°C° 1 mm 4 m/s 741 mmHg 71%
    16:00 +27°C° 0,9 mm 4 m/s 741 mmHg 74%
    17:00 +26°C° 0,9 mm 4 m/s 741 mmHg 77%
    18:00 +26°C° 0,9 mm 4 m/s 741 mmHg 80%
    19:00 +23°C° 0,6 mm 5 m/s 741 mmHg 83%
    20:00 +22°C° 0,6 mm 5 m/s 741 mmHg 87%
    21:00 +21°C° 0,6 mm 5 m/s 741 mmHg 91%
    22:00 +21°C° 0,2 mm 5 m/s 741 mmHg 91%
    23:00 +20°C° 0,2 mm 5 m/s 741 mmHg 92%

    Mâine, 23 Iulie, Luni

    Timp Temperatura Precipitaţii Vânt Presiune Umiditate
    00:00 +20°C° 0,2 mm 5 m/s 741 mmHg 93%
    01:00 +19°C° 0 mm 5 m/s 741 mmHg 93%
    02:00 +19°C° 0 mm 5 m/s 741 mmHg 93%
    03:00 +19°C° 0 mm 5 m/s 742 mmHg 92%
    04:00 +19°C° 0 mm 5 m/s 742 mmHg 92%
    05:00 +17°C° 0 mm 5 m/s 742 mmHg 91%
    06:00 +17°C° 0 mm 5 m/s 742 mmHg 90%
    07:00 +20°C° 0 mm 5 m/s 742 mmHg 87%
    08:00 +21°C° 0 mm 5 m/s 742 mmHg 85%
    09:00 +22°C° 0 mm 5 m/s 742 mmHg 83%
    10:00 +23°C° 0,6 mm 5 m/s 742 mmHg 80%
    11:00 +26°C° 0,6 mm 5 m/s 742 mmHg 76%
    12:00 +27°C° 0,6 mm 5 m/s 742 mmHg 73%
    13:00 +27°C° 1 mm 6 m/s 742 mmHg 73%
    14:00 +27°C° 1 mm 6 m/s 742 mmHg 73%
    15:00 +27°C° 1 mm 6 m/s 742 mmHg 73%
    16:00 +27°C° 0,6 mm 6 m/s 742 mmHg 76%
    17:00 +26°C° 0,6 mm 5 m/s 743 mmHg 79%
    18:00 +25°C° 0,6 mm 5 m/s 743 mmHg 82%
    19:00 +23°C° 0,5 mm 5 m/s 743 mmHg 83%
    20:00 +22°C° 0,5 mm 5 m/s 743 mmHg 84%
    21:00 +21°C° 0,5 mm 5 m/s 744 mmHg 86%
    22:00 +21°C° 0,1 mm 5 m/s 744 mmHg 86%
    23:00 +20°C° 0,1 mm 5 m/s 744 mmHg 86%

    Poimâine, 24 Iulie, Marţi

    Timp Temperatura Precipitaţii Vânt Presiune Umiditate
    00:00 +20°C° 0,1 mm 4 m/s 744 mmHg 86%
    01:00 +19°C° 0 mm 4 m/s 744 mmHg 87%
    02:00 +19°C° 0 mm 4 m/s 744 mmHg 88%
    03:00 +19°C° 0 mm 3 m/s 744 mmHg 88%
    04:00 +19°C° 0,2 mm 4 m/s 745 mmHg 88%
    05:00 +19°C° 0,2 mm 4 m/s 745 mmHg 87%
    06:00 +19°C° 0,2 mm 4 m/s 745 mmHg 87%
    07:00 +20°C° 0,2 mm 4 m/s 745 mmHg 83%
    08:00 +21°C° 0,2 mm 4 m/s 745 mmHg 80%
    09:00 +22°C° 0,2 mm 5 m/s 746 mmHg 77%
    10:00 +22°C° 0,1 mm 5 m/s 746 mmHg 77%
    11:00 +22°C° 0,1 mm 5 m/s 746 mmHg 76%
    12:00 +22°C° 0,1 mm 5 m/s 746 mmHg 76%
    13:00 +23°C° 0,1 mm 5 m/s 746 mmHg 73%
    14:00 +25°C° 0,1 mm 5 m/s 746 mmHg 70%
    15:00 +26°C° 0,1 mm 5 m/s 746 mmHg 67%
    16:00 +26°C° 0,1 mm 5 m/s 747 mmHg 67%
    17:00 +26°C° 0,1 mm 4 m/s 747 mmHg 67%
    18:00 +26°C° 0,1 mm 4 m/s 747 mmHg 67%
    19:00 +25°C° 0 mm 4 m/s 747 mmHg 67%
    20:00 +23°C° 0 mm 4 m/s 747 mmHg 67%
    21:00 +22°C° 0 mm 4 m/s 747 mmHg 68%
    22:00 +22°C° 0 mm 4 m/s 747 mmHg 63%
    23:00 +22°C° 0 mm 5 m/s 747 mmHg 59%

    25 Iulie, Miercuri

    Timp Temperatura Precipitaţii Vânt Presiune Umiditate
    00:00 +22°C° 0 mm 5 m/s 747 mmHg 54%
    01:00 +21°C° 0 mm 5 m/s 748 mmHg 54%
    02:00 +21°C° 0 mm 5 m/s 748 mmHg 54%
    03:00 +20°C° 0 mm 4 m/s 748 mmHg 54%
    04:00 +20°C° 0 mm 4 m/s 748 mmHg 56%
    05:00 +19°C° 0 mm 4 m/s 748 mmHg 59%
    06:00 +19°C° 0 mm 4 m/s 748 mmHg 62%
    07:00 +19°C° 0 mm 4 m/s 749 mmHg 64%
    08:00 +20°C° 0 mm 5 m/s 749 mmHg 65%
    09:00 +21°C° 0 mm 5 m/s 749 mmHg 67%
    10:00 +22°C° 0 mm 5 m/s 749 mmHg 65%
    11:00 +23°C° 0 mm 5 m/s 749 mmHg 63%
    12:00 +25°C° 0 mm 5 m/s 749 mmHg 61%
    13:00 +26°C° 0 mm 6 m/s 749 mmHg 57%
    14:00 +28°C° 0 mm 6 m/s 749 mmHg 54%
    15:00 +29°C° 0 mm 6 m/s 749 mmHg 50%
    16:00 +28°C° 0 mm 5 m/s 749 mmHg 54%
    17:00 +28°C° 0 mm 5 m/s 749 mmHg 58%
    18:00 +27°C° 0 mm 4 m/s 749 mmHg 62%
    19:00 +26°C° 0 mm 4 m/s 749 mmHg 62%
    20:00 +23°C° 0 mm 4 m/s 750 mmHg 63%
    21:00 +22°C° 0 mm 4 m/s 750 mmHg 64%
    22:00 +22°C° 0 mm 5 m/s 750 mmHg 60%
    23:00 +23°C° 0 mm 5 m/s 750 mmHg 56%

    26 Iulie, Joi

    Timp Temperatura Precipitaţii Vânt Presiune Umiditate
    00:00 +23°C° 0 mm 5 m/s 750 mmHg 52%
    01:00 +23°C° 0 mm 5 m/s 750 mmHg 52%
    02:00 +23°C° 0 mm 5 m/s 750 mmHg 52%
    03:00 +23°C° 0 mm 5 m/s 750 mmHg 52%
    04:00 +22°C° 0 mm 5 m/s 750 mmHg 58%
    05:00 +22°C° 0 mm 5 m/s 750 mmHg 64%
    06:00 +21°C° 0 mm 5 m/s 750 mmHg 70%
    07:00 +22°C° 0 mm 5 m/s 750 mmHg 67%
    08:00 +24°C° 0 mm 6 m/s 750 mmHg 65%
    09:00 +26°C° 0 mm 6 m/s 751 mmHg 62%
    10:00 +28°C° 0 mm 6 m/s 751 mmHg 60%
    11:00 +29°C° 0 mm 6 m/s 751 mmHg 57%
    12:00 +30°C° 0 mm 6 m/s 751 mmHg 54%
    13:00 +32°C° 0 mm 6 m/s 751 mmHg 53%
    14:00 +32°C° 0 mm 6 m/s 751 mmHg 52%
    15:00 +32°C° 0 mm 6 m/s 751 mmHg 50%
    16:00 +32°C° 0 mm 6 m/s 751 mmHg 54%
    17:00 +30°C° 0 mm 5 m/s 751 mmHg 58%
    18:00 +30°C° 0 mm 4 m/s 751 mmHg 62%
    19:00 +28°C° 0 mm 4 m/s 751 mmHg 64%
    20:00 +26°C° 0 mm 4 m/s 752 mmHg 67%
    21:00 +25°C° 0 mm 4 m/s 752 mmHg 69%
    22:00 +23°C° 0 mm 4 m/s 752 mmHg 69%
    23:00 +22°C° 0 mm 4 m/s 752 mmHg 70%

    27 Iulie, Vineri

    Timp Temperatura Precipitaţii Vânt Presiune Umiditate
    00:00 +22°C° 0 mm 4 m/s 752 mmHg 70%
    01:00 +21°C° 0 mm 4 m/s 752 mmHg 72%
    02:00 +20°C° 0 mm 4 m/s 752 mmHg 74%
    03:00 +20°C° 0 mm 4 m/s 752 mmHg 76%
    04:00 +20°C° 0 mm 4 m/s 752 mmHg 77%
    05:00 +20°C° 0 mm 4 m/s 752 mmHg 78%
    06:00 +20°C° 0 mm 4 m/s 752 mmHg 80%
    07:00 +22°C° 0 mm 5 m/s 752 mmHg 75%
    08:00 +25°C° 0 mm 5 m/s 752 mmHg 70%
    09:00 +27°C° 0 mm 5 m/s 752 mmHg 65%
    10:00 +28°C° 0 mm 5 m/s 752 mmHg 60%
    11:00 +29°C° 0 mm 6 m/s 752 mmHg 55%
    12:00 +30°C° 0 mm 6 m/s 752 mmHg 51%
    13:00 +30°C° 0 mm 6 m/s 752 mmHg 50%
    14:00 +30°C° 0 mm 6 m/s 752 mmHg 50%
    15:00 +32°C° 0 mm 6 m/s 752 mmHg 50%
    16:00 +30°C° 0 mm 5 m/s 752 mmHg 55%
    17:00 +30°C° 0 mm 4 m/s 752 mmHg 59%
    18:00 +29°C° 0 mm 3 m/s 751 mmHg 63%
    19:00 +27°C° 0 mm 3 m/s 752 mmHg 66%
    20:00 +26°C° 0 mm 3 m/s 752 mmHg 69%
    21:00 +23°C° 0 mm 4 m/s 752 mmHg 72%
    22:00 +23°C° 0 mm 4 m/s 752 mmHg 72%
    23:00 +22°C° 0 mm 4 m/s 752 mmHg 71%
    Arată mai mult